Torna al catalogo

STARLINK-34837

AttivoComunicazioniVLEO
NORAD 65423·PAYLOAD·🇺🇸 United States

Lanciato Aug 31, 2025 da Cape Canaveral Space Force Station

Loading…

Prossimi Passaggi (prossime 24 ore)

TLE

AggiornatoSource: CelesTrak SupGP

Epoca: Sep 14, 2026, 22:54 UTC

1 65423C 25192V   26257.95465278  .00039708  00000+0  12771-2 0  2570
2 65423  53.1575  71.8573 0001118  82.2477 180.9013 15.31677797    16

Traccia STARLINK-34837 in tempo reale con AllMySat

Download on the App Store